Dewpoint
52 50 49 53 31 35 28 11 15 22 31 33 32 35 35 41 46 41 47 47 61 64 67 70 72 72 72 72 72 72 72 70 69 68 67 67 65 65 65 65 66 64 64 65 66 68 69 68 66
50 49 53 48 36 19 13 21 29 32 33 33 30 29 33 43 47 47 42 41 58 59 60 67 72 72 72 71 72 72 72 71 70 69 68 67 65 65 66 68 68 65 67 69 68 69 68 66 65
49 50 46 39 28 24 20 28 31 31 32 32 31 32 34 42 44 46 40 37 41 54 54 58 69 72 71 71 71 72 72 72 71 70 68 68 67 65 67 68 68 67 70 69 69 67 66 65 65
46 46 39 33 27 20 25 27 27 28 28 30 30 28 36 42 43 42 37 36 36 36 45 55 59 70 71 70 71 71 72 71 71 71 69 68 68 67 68 69 69 69 69 69 67 66 66 65 65
46 41 29 23 25 23 28 29 27 24 27 27 27 25 30 39 42 42 39 37 36 36 36 43 55 57 69 71 70 70 71 71 71 71 70 68 68 69 70 69 70 69 69 69 68 66 66 66 65
35 35 30 24 21 19 22 22 22 21 20 23 22 23 26 35 36 37 37 37 37 37 38 37 44 53 60 69 70 70 70 71 70 70 70 68 69 69 70 69 70 69 69 68 67 66 66 65 65
33 26 23 26 21 18 22 22 23 24 23 25 27 22 26 30 35 34 36 37 39 40 39 38 37 43 53 59 68 70 70 70 70 70 70 70 69 69 70 70 70 69 69 68 67 65 65 65 65
37 32 27 22 20 21 24 24 25 25 24 28 28 24 23 29 33 36 37 39 41 41 41 39 37 37 47 52 64 69 70 70 70 69 69 69 69 68 70 70 70 70 69 67 67 66 65 65 65
38 31 24 25 23 25 26 25 28 30 28 29 28 27 28 30 39 40 41 41 42 42 42 42 40 38 39 49 54 66 69 69 69 69 69 69 68 68 70 69 69 69 69 68 67 67 66 66 64
37 32 29 29 29 29 30 30 31 30 30 31 32 32 34 38 40 40 40 41 42 43 43 43 42 42 39 40 52 60 69 69 69 69 69 68 68 69 69 69 69 69 69 69 68 67 66 65 63
36 31 33 32 33 34 33 32 33 32 30 31 31 32 34 37 38 39 40 42 43 44 45 45 45 44 44 42 45 55 67 69 69 69 69 68 69 69 69 68 69 68 68 68 68 67 65 63 61
29 34 33 33 35 35 34 35 35 35 34 34 34 34 35 37 37 38 41 43 44 45 47 48 48 47 46 45 43 47 63 69 69 69 69 68 68 68 68 67 68 67 67 67 67 66 64 61 59
35 35 36 36 36 36 36 35 35 35 35 35 35 35 36 37 37 39 41 44 45 45 46 47 49 48 48 47 45 44 50 67 68 68 69 68 66 66 67 67 67 66 66 66 66 65 63 60 58
35 34 35 35 35 35 34 34 35 34 35 35 35 36 36 37 38 39 41 43 44 45 46 48 49 49 49 48 46 45 46 61 68 68 68 68 66 65 66 67 66 65 65 63 64 64 62 60 58
35 33 34 34 35 35 34 32 33 34 34 35 35 35 33 35 40 41 42 43 44 45 46 46 48 49 50 48 47 46 46 49 67 68 68 68 66 65 66 66 66 65 64 62 62 61 61 59 57
34 33 29 32 33 33 32 29 30 32 34 34 33 31 32 39 41 41 42 43 44 44 45 46 47 47 48 49 47 46 45 48 55 68 68 68 66 66 66 65 65 65 63 62 60 59 58 58 56
31 29 29 31 33 33 33 30 30 30 30 29 28 29 37 40 40 42 42 43 44 45 46 46 47 47 48 49 49 46 45 47 51 64 67 67 66 66 66 65 65 64 62 61 58 58 56 55 55
28 29 29 29 29 30 30 30 31 30 26 25 26 35 37 39 40 42 43 44 44 45 46 48 50 50 49 49 50 48 46 45 50 59 67 67 67 66 66 65 64 63 60 59 57 56 55 54 54
23 22 22 24 25 26 26 29 27 24 24 22 34 36 37 39 41 42 43 43 44 45 47 47 50 52 50 50 49 48 46 45 49 58 63 67 67 66 66 66 65 62 59 58 56 54 54 53 54
24 24 23 25 24 21 19 19 21 24 23 26 36 36 37 39 40 41 42 43 44 45 45 46 48 50 53 51 50 50 48 47 47 56 64 66 67 66 66 66 65 63 59 56 54 52 53 53 54
24 23 24 25 26 22 19 18 17 19 22 33 36 37 38 39 39 40 41 43 44 44 45 46 47 49 53 51 51 50 48 48 48 53 60 65 66 66 66 66 65 63 59 55 53 52 52 52 54
21 26 27 27 25 18 21 18 24 22 27 32 34 36 37 38 39 40 41 41 43 44 46 46 48 49 52 53 51 50 48 47 48 49 56 62 64 65 66 66 65 64 61 57 54 52 52 52 52
23 27 27 27 26 23 19 17 21 28 29 30 33 35 36 38 39 40 41 41 43 45 46 47 49 51 55 54 51 51 49 49 49 52 52 55 62 63 64 65 65 64 61 59 55 54 53 53 52
25 28 30 27 24 20 21 19 20 27 28 30 32 34 36 37 38 40 42 43 44 46 47 48 49 51 53 53 51 51 50 50 51 51 53 55 57 60 62 64 65 64 63 60 58 55 54 54 52
28 27 23 18 21 18 24 22 20 28 30 30 31 33 35 37 38 39 41 43 43 44 46 48 48 50 51 54 52 51 51 51 51 52 53 56 57 59 59 63 63 64 63 62 60 57 56 55 54
23 25 22 16 19 20 22 20 19 28 30 31 32 33 35 36 37 38 39 41 42 42 44 47 48 49 51 52 54 52 51 53 53 54 56 56 57 58 60 61 62 62 64 63 63 60 59 58 56
26 26 28 23 22 23 20 21 26 29 30 30 30 32 33 35 37 37 37 39 39 40 44 47 49 50 53 55 56 53 53 53 53 55 55 56 57 58 60 61 60 54 59 64 64 62 61 60 58
23 26 24 25 18 15 18 17 18 26 27 29 30 30 32 34 35 36 37 37 38 40 42 46 48 51 52 53 57 55 54 54 54 55 55 55 57 58 58 59 60 57 60 61 63 63 63 61 59
23 24 25 26 25 19 15 10 25 25 27 29 30 30 31 34 35 36 36 36 37 39 40 43 45 49 50 51 53 56 56 54 55 56 56 56 56 58 59 60 61 62 62 63 63 63 62 61 60
19 18 23 22 22 23 20 16 25 28 29 30 30 31 31 34 35 36 36 36 37 38 38 40 42 47 49 51 51 51 53 56 54 55 56 57 57 58 59 59 61 62 62 62 62 62 61 61 60
Wind_Speed
12 15 6 3 4 3 3 8 5 4 4 1 3 7 6 4 4 7 2 10 10 12 12 11 8 14 15 16 15 15 15 15 14 13 13 12 12 12 13 13 10 11 11 12 13 12 16 19 16
8 7 4 2 5 3 4 9 8 6 3 3 6 6 9 6 7 7 4 10 10 11 12 12 9 5 14 15 16 16 16 14 16 14 13 13 14 13 12 10 10 11 11 7 13 16 16 15 15
7 3 3 5 5 7 3 10 10 6 10 7 4 5 4 3 11 4 4 11 13 10 10 11 12 7 11 14 16 17 16 15 14 16 15 12 15 15 13 10 10 10 14 16 18 15 15 14 14
4 3 4 1 10 4 3 5 5 2 7 11 3 6 4 4 4 8 8 13 16 14 9 9 11 8 5 12 15 17 17 16 15 16 17 13 13 14 13 10 9 13 17 16 17 15 14 13 12
2 3 3 2 6 3 6 7 9 9 5 6 5 3 3 5 11 9 11 13 13 14 15 10 6 7 3 1 13 16 18 17 17 17 17 16 13 12 13 11 15 16 19 17 16 15 14 12 9
2 3 2 7 7 4 6 7 6 6 5 3 5 2 3 6 13 11 12 11 11 12 15 14 7 3 3 3 5 15 18 19 18 19 18 20 15 13 11 14 18 19 18 17 16 14 14 12 8
4 4 4 5 3 5 3 3 5 3 4 5 2 0 3 6 6 6 7 9 11 11 13 14 13 8 3 1 7 12 16 18 20 19 18 18 17 14 13 17 19 19 19 18 17 16 14 12 9
2 3 2 4 4 3 3 3 4 5 1 3 2 4 4 4 7 7 7 8 9 11 12 14 14 10 8 4 5 11 17 19 20 20 20 20 19 17 15 19 20 19 20 20 19 17 15 12 9
2 3 4 3 1 4 3 3 4 3 3 4 3 6 10 16 9 10 8 9 11 11 11 13 13 14 8 8 6 9 17 20 21 21 21 19 14 16 17 18 20 20 20 20 20 19 17 16 12
1 2 2 2 4 4 1 3 3 2 7 11 13 10 6 3 7 9 12 15 15 16 15 12 14 13 14 10 9 9 10 14 15 15 16 15 13 13 15 16 20 20 19 19 19 19 18 15 11
3 3 2 3 2 4 1 6 4 7 12 15 11 12 14 9 10 13 15 14 15 17 14 13 13 15 15 14 11 9 9 11 14 17 17 15 14 14 14 14 15 14 17 14 16 15 13 14 13
2 5 2 3 2 2 3 4 8 13 17 15 17 16 14 13 11 17 16 13 12 14 17 15 14 14 16 15 13 13 10 11 13 18 20 17 15 15 15 15 15 15 13 14 14 13 14 15 15
4 4 5 5 8 11 10 13 13 15 17 19 18 14 11 12 18 16 11 10 12 15 18 19 15 16 17 17 17 15 15 13 14 16 20 21 19 18 17 17 18 17 15 15 14 14 15 15 14
1 7 12 11 16 15 17 16 12 9 15 14 18 15 15 17 15 6 9 11 13 16 19 16 16 16 18 18 18 19 16 15 15 14 18 25 22 19 18 18 19 18 18 16 16 16 15 15 14
6 11 15 20 17 11 4 8 15 23 17 13 15 14 12 11 7 10 13 15 13 15 17 20 18 16 18 20 19 17 18 16 14 16 17 24 24 22 20 20 20 20 19 19 18 16 15 15 16
5 5 4 6 7 3 7 10 19 16 12 17 17 14 9 5 6 10 14 16 15 18 21 22 20 22 21 19 18 17 17 17 18 15 18 22 25 23 24 21 22 21 19 20 19 19 18 18 16
2 7 4 9 5 5 10 7 13 10 8 14 17 16 5 9 14 14 15 18 20 20 20 22 24 25 23 22 19 19 18 18 18 18 19 20 23 24 25 24 22 23 20 20 20 19 20 19 19
11 8 7 9 8 7 15 19 19 17 19 21 17 3 8 13 14 18 18 17 18 21 22 22 20 26 24 22 18 17 17 18 19 20 18 21 24 23 26 24 24 24 21 22 20 22 17 18 19
8 10 13 13 17 13 17 20 20 21 20 22 0 6 12 16 15 17 16 17 18 20 18 22 20 23 23 20 20 20 20 19 16 18 21 21 22 25 26 23 24 24 24 27 25 18 23 17 18
11 14 14 13 11 12 12 18 23 21 19 14 6 7 12 14 20 20 22 20 18 20 21 21 22 21 18 20 18 17 16 17 17 15 20 22 22 27 24 24 24 24 24 26 26 24 14 12 21
11 9 7 9 14 12 12 19 19 25 23 9 6 5 9 11 16 20 21 22 19 21 20 21 23 22 19 19 16 16 14 14 17 15 19 20 23 24 26 27 26 26 23 25 28 24 25 22 17
10 3 6 11 8 6 4 11 12 4 12 7 3 8 10 13 15 15 18 23 21 21 19 20 21 21 20 18 20 20 20 21 18 18 13 16 20 22 24 28 25 28 24 24 26 24 25 22 23
7 9 9 6 9 9 12 5 10 10 6 3 1 5 10 11 12 17 19 20 21 19 19 20 19 19 19 16 19 19 21 18 16 16 17 18 17 21 25 26 27 26 27 26 27 24 24 24 24
13 9 8 5 3 5 12 12 10 8 8 3 2 8 9 11 13 13 16 19 23 21 18 17 18 17 17 14 17 20 21 18 17 18 19 18 17 17 23 25 24 25 24 23 26 25 26 25 24
0 6 3 2 2 6 5 8 18 8 11 7 6 7 7 10 13 15 17 21 22 26 25 20 16 17 14 13 18 21 21 22 21 20 19 17 17 16 19 26 25 27 24 25 22 24 25 24 25
3 1 1 4 3 6 3 8 7 12 12 9 6 4 5 8 10 12 13 14 18 21 22 23 20 20 17 14 16 19 20 18 19 18 18 18 20 18 15 21 20 32 18 20 23 20 20 24 25
2 2 2 4 4 5 6 5 0 9 10 9 5 1 5 7 10 12 13 12 17 19 21 21 21 19 17 18 16 18 18 19 17 18 17 16 17 17 19 20 24 23 19 22 22 24 22 19 24
4 6 2 4 3 5 7 8 11 15 13 9 4 4 6 6 8 11 12 13 15 17 18 20 20 18 19 20 11 13 16 17 17 18 20 19 18 19 20 22 22 28 25 26 27 20 27 31 24
3 3 4 2 3 4 6 8 5 16 13 10 6 5 6 6 6 7 10 11 12 14 16 18 20 19 20 20 17 6 7 10 10 16 17 18 18 17 20 20 20 21 25 28 26 21 15 20 21
3 4 4 4 3 5 3 11 3 10 11 9 9 7 7 6 6 6 9 12 13 15 18 17 18 19 19 18 16 18 15 7 9 8 16 17 20 17 19 19 21 19 19 19 18 17 16 22 20
Wind_Direction
318 307 312 17 118 72 241 250 267 102 75 103 37 59 84 5 46 140 191 36 63 49 38 36 5 178 175 171 166 161 156 155 146 146 140 138 139 139 138 140 141 133 139 152 160 144 128 121 121
318 326 13 73 118 171 239 266 90 62 125 79 75 25 61 72 71 111 64 28 66 62 46 28 18 225 186 180 171 169 163 165 158 154 149 148 146 148 149 153 150 145 147 134 148 122 115 122 126
310 283 70 133 161 191 230 61 89 65 54 65 69 30 52 70 48 89 82 48 66 58 54 42 34 34 205 191 184 178 173 171 167 159 152 164 157 156 159 160 146 147 128 119 113 121 128 129 134
322 25 39 180 206 245 109 94 32 88 40 44 56 69 58 51 99 134 84 51 35 20 28 34 42 40 37 215 194 188 183 180 173 166 155 178 173 165 167 164 152 141 135 128 129 133 133 134 139
4 65 121 201 249 147 120 99 58 50 71 55 41 23 59 66 87 78 66 53 37 5 353 2 25 42 31 32 216 198 192 187 183 174 169 172 184 178 173 168 147 145 142 137 138 138 136 136 146
74 100 138 205 224 145 68 62 80 45 42 106 55 1 40 59 61 44 41 27 19 356 338 334 338 342 43 240 225 213 202 194 189 186 181 170 186 185 166 154 151 150 143 145 145 144 142 144 155
112 133 204 217 231 170 101 44 66 62 33 51 107 168 246 67 54 18 9 352 343 335 319 309 305 293 253 261 228 211 211 203 197 194 187 178 181 188 172 161 158 156 152 151 151 149 150 152 161
68 129 238 220 184 150 20 57 98 62 256 334 149 226 245 275 322 345 360 347 333 321 310 295 289 289 260 248 240 221 209 208 205 200 194 186 183 189 179 167 167 164 158 156 155 155 156 158 170
10 117 222 317 62 138 133 94 19 33 280 298 243 252 268 301 14 12 349 333 322 309 304 309 307 292 268 245 241 234 216 208 206 205 196 189 185 189 181 173 174 169 165 162 161 160 161 159 170
126 173 147 83 36 97 61 46 331 292 287 275 295 287 323 324 338 334 319 308 299 295 291 284 295 306 311 278 242 230 226 209 203 197 192 185 184 182 174 177 176 172 171 168 166 163 160 161 171
347 178 9 18 51 63 19 307 290 271 260 253 261 268 304 307 317 315 296 279 279 284 282 275 276 287 294 294 273 243 227 214 199 189 186 185 183 177 172 173 178 173 172 170 168 162 164 172 178
257 252 211 277 7 302 261 282 277 266 262 264 269 266 278 283 294 284 279 280 282 284 283 279 267 266 276 282 274 260 231 213 211 194 185 185 187 186 183 177 179 174 175 172 168 173 180 183 189
225 289 318 305 270 258 258 249 252 258 255 265 273 279 270 276 275 277 273 291 296 291 286 282 269 259 258 263 271 266 252 221 218 206 190 187 193 189 185 185 179 180 176 179 176 182 188 195 197
321 301 297 288 273 266 257 259 249 258 254 265 252 249 255 263 271 289 339 335 330 319 310 301 293 271 255 249 252 256 254 237 214 210 199 191 193 190 185 184 183 183 182 182 183 189 194 201 198
311 288 288 272 252 235 165 263 245 254 241 251 240 241 257 258 21 6 335 325 318 314 309 305 300 287 262 246 241 244 245 243 221 207 212 200 193 192 185 185 186 187 186 184 184 188 196 202 202
273 282 276 307 154 209 133 271 276 275 216 241 247 242 253 61 2 343 328 317 313 306 297 291 287 282 279 258 236 234 235 235 229 217 209 210 197 192 189 188 189 187 185 187 189 189 197 205 207
328 285 300 311 243 208 199 268 273 311 294 269 277 267 23 347 337 336 326 316 309 299 290 285 281 272 266 263 242 230 232 226 227 222 216 203 207 196 188 191 190 185 184 190 188 194 196 199 202
303 292 266 256 287 271 262 265 277 299 297 288 283 32 350 341 327 325 313 307 305 297 288 283 276 270 257 249 247 227 229 233 226 220 216 208 206 203 191 194 188 185 186 191 190 193 198 197 192
296 295 293 291 286 276 268 256 269 275 277 285 209 13 345 332 324 317 304 308 300 295 295 296 292 300 247 238 237 231 228 233 232 218 215 214 206 205 199 192 193 189 189 192 191 186 192 195 184
298 295 286 299 316 327 314 289 273 261 259 276 143 25 348 328 322 315 315 307 300 300 301 298 293 292 267 226 231 226 221 227 231 224 214 211 211 208 203 195 195 190 192 193 187 188 181 186 178
322 320 303 280 326 308 298 282 270 265 228 147 85 40 348 314 307 304 306 307 308 302 301 298 295 293 291 228 224 215 218 225 224 222 220 213 211 209 208 202 197 191 189 191 189 188 187 193 190
307 304 331 320 320 278 15 299 300 297 149 125 40 9 329 310 308 302 305 308 311 306 302 295 292 292 288 237 218 211 217 227 225 229 225 217 220 214 212 205 201 194 191 190 191 191 190 187 192
267 313 292 296 298 307 277 252 273 154 160 190 313 335 309 303 301 308 309 309 310 313 313 305 298 295 282 248 214 210 219 224 218 216 223 235 232 223 216 216 200 204 193 193 189 190 193 191 195
279 306 320 265 283 273 240 193 277 198 193 218 284 280 291 309 316 321 320 325 328 328 322 315 305 300 308 264 222 213 218 217 219 214 217 222 234 234 227 221 209 202 198 193 188 191 194 193 198
195 286 324 302 243 257 317 197 256 214 188 191 243 273 305 324 331 329 342 336 331 332 329 325 316 302 302 294 244 224 218 214 217 217 212 212 223 227 223 222 227 209 205 192 193 191 195 195 196
302 272 327 299 305 297 223 238 265 199 166 181 200 235 318 339 331 336 329 325 332 328 328 324 322 314 299 275 257 234 225 221 223 216 211 213 219 225 223 221 227 224 222 199 192 191 199 198 205
339 258 102 267 261 284 238 263 232 165 182 181 182 202 321 333 336 340 342 339 342 333 335 329 325 321 307 277 254 234 225 218 218 224 219 221 219 220 219 220 219 220 252 235 207 186 187 207 203
223 321 266 221 308 284 286 264 237 200 204 197 209 277 296 314 333 342 344 346 344 338 339 348 348 350 352 356 290 232 225 225 223 220 227 231 230 222 228 220 210 211 200 221 224 205 191 206 206
221 268 234 280 216 260 298 276 244 204 204 205 216 251 275 292 321 336 341 343 344 349 350 351 354 350 358 358 347 316 223 214 221 224 231 231 233 224 221 212 206 205 200 204 216 197 185 191 189
179 243 198 213 260 253 272 278 250 179 189 199 226 245 268 277 308 337 351 358 354 359 359 349 349 359 1 5 27 23 14 305 233 248 239 225 225 219 218 211 198 200 205 201 202 215 208 207 193